TimeCST,TemperatureF,Dew PointF,Humidity,Sea Level PressureIn,VisibilityMPH,Wind Direction,Wind SpeedMPH,Gust SpeedMPH,PrecipitationIn,Events,Conditions,WindDirDegrees,DateUTC
12:00 AM,66,65,98,29.86,12,ENE,3.5,,,,Scattered Clouds,60,2013-10-03 06:00:00
12:00 AM,66.2,66.2,100,30.01,6.2,ENE,3.5,-,N/A,,Mostly Cloudy,60,2013-10-03 06:00:00
1:00 AM,66.2,64.4,94,29.98,6.2,NNE,2.3,-,N/A,,Scattered Clouds,20,2013-10-03 07:00:00
2:00 AM,64.4,64.4,100,29.94,6.2,East,4.6,-,N/A,,Scattered Clouds,90,2013-10-03 08:00:00
3:00 AM,65,64,97,29.82,12,NE,3.5,,,,Clear,40,2013-10-03 09:00:00
3:00 AM,64.4,64.4,100,29.93,-9999.0,NE,3.5,-,N/A,,Clear,40,2013-10-03 09:00:00
4:00 AM,64.4,62.6,94,29.93,-9999.0,ENE,5.8,-,N/A,,Clear,60,2013-10-03 10:00:00
5:00 AM,64.4,62.6,94,29.95,-9999.0,East,5.8,-,N/A,,Clear,80,2013-10-03 11:00:00
6:00 AM,65,62,88,29.80,12,ENE,4.6,,,,Scattered Clouds,60,2013-10-03 12:00:00
6:00 AM,64.4,62.6,94,29.97,6.2,ENE,4.6,-,N/A,,Mostly Cloudy,60,2013-10-03 12:00:00
7:00 AM,68.0,62.6,83,29.99,-9999.0,ENE,5.8,-,N/A,,Clear,70,2013-10-03 13:00:00
8:00 AM,73.4,66.2,78,30.01,-9999.0,East,5.8,-,N/A,,Clear,100,2013-10-03 14:00:00
9:00 AM,78,65,56,29.83,12,East,9.2,,,,Clear,90,2013-10-03 15:00:00
9:00 AM,78.8,64.4,61,30.02,-9999.0,East,9.2,-,N/A,,Clear,90,2013-10-03 15:00:00
10:00 AM,77.0,64.4,65,30.01,-9999.0,East,5.8,-,N/A,,Clear,100,2013-10-03 16:00:00
11:00 AM,80.6,69.8,70,29.99,6.2,WSW,6.9,-,N/A,,Mostly Cloudy,240,2013-10-03 17:00:00
12:00 PM,73.4,68.0,83,29.99,6.2,WSW,11.5,-,N/A,,Mostly Cloudy,240,2013-10-03 18:00:00
1:00 PM,71.6,68.0,88,29.98,6.2,WSW,8.1,-,N/A,Rain,Light Rain,250,2013-10-03 19:00:00
2:00 PM,73.4,68.0,83,29.95,6.2,West,4.6,-,N/A,,Mostly Cloudy,280,2013-10-03 20:00:00
3:00 PM,74,68,76,29.80,9,SW,11.5,,,,Overcast,230,2013-10-03 21:00:00
3:00 PM,73.4,68.0,83,29.93,6.2,SW,11.5,-,N/A,,Mostly Cloudy,230,2013-10-03 21:00:00
4:00 PM,71.6,68.0,88,29.94,6.2,WSW,6.9,-,N/A,Fog,Mostly Cloudy,240,2013-10-03 22:00:00
5:00 PM,71.6,69.8,94,29.95,3.1,West,8.1,-,N/A,,Mostly Cloudy,260,2013-10-03 23:00:00
6:00 PM,70,69,97,29.83,3,WSW,5.8,,,,Mist,240,2013-10-04 00:00:00
6:00 PM,69.8,69.8,100,29.97,3.1,WSW,5.8,-,N/A,,Mostly Cloudy,240,2013-10-04 00:00:00
7:00 PM,69.8,68.0,94,30.01,5.0,WSW,9.2,-,N/A,Fog,Fog,240,2013-10-04 01:00:00
8:00 PM,68.0,68.0,100,30.04,5.0,WSW,9.2,-,N/A,Fog,Light Drizzle,240,2013-10-04 02:00:00
9:00 PM,68.0,68.0,100,30.07,5.0,West,4.6,-,N/A,Fog,Fog,270,2013-10-04 03:00:00
10:00 PM,68.0,68.0,100,30.08,5.0,WNW,3.5,-,N/A,Rain,Rain,290,2013-10-04 04:00:00
11:00 PM,68.0,68.0,100,30.05,6.2,ENE,2.3,-,N/A,,Mostly Cloudy,70,2013-10-04 05:00:00